Location: Alvediston
(51.0078°N, 2.0364°W)
Time: 16:37:56
(UTC+00:00)

Cosmos 1656 Rocket - Pass Details

Date: 27 February 2020
Orbit: 794 x 848 km, 71.1° (Epoch: 30 March)

Event Time Altitude Azimuth Distance (km) Brightness Sun altitude
Rises 18:17:00 0° 189° (S) 3,324 7.0 -5.9°
Reaches altitude 10° 18:19:27 10° 184° (S) 2,405 6.2 -6.2°
Maximum altitude 18:24:44 50° 111° (ESE) 1,052 3.9 -7.1°
Drops below altitude 10° 18:30:08 10° 38° (NE) 2,457 5.7 -7.9°
Sets 18:32:40 0° 33° (NNE) 3,402 6.5 -8.3°
